COSMOS 2251 DEB

Satellite information

Favourite Embed

Satellite Type and Status

DEBRISIN ORBIT

Key statistics

Satellite COSMOS 2251 DEB at a glance.

Uptime

11868

Days in orbit

Revolutions

≈ 14.4

Per day

Orbit

LEO

Low Earth Orbit

Inclination

74.0

Latest

Satellite identification and parameters

Extended collection of information and parameters for COSMOS 2251 DEB.

Object identification

Identified? True

Debris? True

Object name: COSMOS 2251 DEB

International designator: 1993-036FD

Object number (NORAD): 33948

Object ID (CCSDS): 33948

Country: COMMONWEALTH OF INDEPENDENT STATES (CIS)

Current information (Y/N): Y

RCS size: SMALL

Orbital parameters

Period: 100.305 minutes

Inclination: 74.0356 deg

SMA: 7151.116 km

Apoapsis: 789.214 km

Periapsis: 756.748 km

RAAN: 306.0283 deg

Eccentricy: 0.00227001

Argument of periapsis: 22.0095 deg

Mean anomaly: 338.2028 deg

Mean motion: 14.35628402 rev/day

Mean motion (dot): 0.00000908 rev/day2

B* drag term: 0.00032310008 1/REarth

Two-line elements (TLE)

Creation date: Dec. 12, 2025, 10:14 a.m.

Reference frame: TEME

Reference center: EARTH

Epoch: Dec. 12, 2025, 6:03 a.m. UTC

TLE line 0: 0 COSMOS 2251 DEB

TLE line 1: 1 33948U 93036FD 25346.25224544 .00000908 00000-0 32310-3 0 9995

TLE line 2: 2 33948 74.0356 306.0283 0022700 22.0095 338.2028 14.35628402880169

Live tracking on map

Real-time ground track for satellite COSMOS 2251 DEB.

In-orbit conjunctions

A list of the most updated potential collisions computed for object COSMOS 2251 DEB.

Target Orbit TCA Probability of collision Miss distance Type
FENGYUN 1C DEB SSO 2025-10-27 09:28:00 0.0001098483 271.0 (m) DEBRIS
CZ-6A DEB LEO 2025-01-31 22:59:34 0.0001433896 147.0 (m) DEBRIS
COSMOS 2251 DEB LEO 2024-08-30 08:23:12 0.0001177038 132.0 (m) DEBRIS

Associated space launch

Military communications satellite. Destroyed in a collision with Iridium 33.

COSMOS 2251 DEB was lifted into orbit during the mission ‘Kosmos-3M | Strela-2M 51’, on board a Kosmos-3M space rocket.

The launch took place on June 16, 1993, 4:17 a.m. from 132/1 (132L).

For more information about the launch, click the button.

Launch to space Kosmos-3M | Strela-2M 51
Kosmos-3M | Strela-2M 51

Agency: N/A

Status: Launch Successful

Launch date: June 16, 1993, 4:17 a.m. UTC

Rocket: Kosmos-3M

Launch pad: 132/1 (132L)

Location: Plesetsk Cosmodrome, Russian Federation

...

Latest news about this satellite

There are no fresh news available about this satellite. Check back as we update our databases every day.


Newsletter sign-up

Weekly statistics, charts and insights to help you stay on top of the space industry.